Eastman, GA

5:53 PM EDT on July 24, 2017 (GMT -0400)
Heart Of Georgia Regional

Weather History for KEZM - May, 2013

Change the Weather History Date:

Saturday, May 25, 2013

  Actual Average Record
Temperature  
Mean Temperature 66 °F -  
Max Temperature 83 °F 86 °F 94 °F (2014)
Min Temperature 50 °F 63 °F 50 °F (2013)
Cooling Degree Days 2    
Growing Degree Days 16 (Base 50)    
Moisture  
Dew Point 48 °F    
Average Humidity 59    
Maximum Humidity 95    
Minimum Humidity 22    
Precipitation  
Precipitation 0.00 in - - ()
Sea Level Pressure  
Sea Level Pressure 30.25 in    
Wind  
Wind Speed 2 mph (East)    
Max Wind Speed 10 mph    
Max Gust Speed -    
Visibility 9 miles    
Events      
Averages and records for this station are not official NWS values.
T = Trace of Precipitation, MM = Missing Value Source: NWS Daily Summary

Daily Weather History Graph

Daily Weather History Graph

Search for Another Location

Airport or City:

Trip Planner

Search our weather history database for the weather conditions in past years. The results will help you decide how hot, cold, wet, or windy it might be!

Date:

Astronomy

May. 25, 2013 Rise Set
Actual Time 6:29 AM EDT 8:30 PM EDT
Civil Twilight 6:01 AM EDT 8:57 PM EDT
Nautical Twilight 5:28 AM EDT 9:31 PM EDT
Astronomical Twilight 4:52 AM EDT 10:07 PM EDT
Moon 9:17 PM EDT (5/25) 6:53 AM EDT (5/25)
Length of Visible Light 14h 56m
Length of Day
14h 01m
Full, 100% of the Moon is Illuminated
May 25
Full
May 31
Last Quarter
Jun 8
New
Jun 16
First Quarter
Jun 23
Full

Hourly Weather History & Observations

Time (EDT) Temp. Dew Point Humidity Pressure Visibility Wind Dir Wind Speed Gust Speed Precip Events Conditions
12:15 AM 57.7 °F 53.8 °F 87% 30.21 in 10.0 mi NNW 3.5 mph - N/A   Clear
12:35 AM 58.8 °F 54.0 °F 84% 30.21 in 10.0 mi Calm Calm - N/A   Clear
12:55 AM 58.6 °F 53.2 °F 82% 30.21 in 10.0 mi Calm Calm - N/A   Clear
1:15 AM 59.9 °F 54.0 °F 81% 30.21 in 10.0 mi Calm Calm - N/A   Clear
1:35 AM 56.3 °F 52.9 °F 88% 30.21 in 10.0 mi Calm Calm - N/A   Clear
1:55 AM 54.7 °F 52.3 °F 92% 30.20 in 10.0 mi Calm Calm - N/A   Clear
2:15 AM 54.5 °F 52.2 °F 92% 30.20 in 10.0 mi Calm Calm - N/A   Clear
2:35 AM 54.0 °F 52.5 °F 95% 30.20 in 10.0 mi Calm Calm - N/A   Clear
2:55 AM 53.6 °F 51.8 °F 94% 30.19 in 3.0 mi Calm Calm - N/A   Clear
3:15 AM 52.9 °F 51.3 °F 94% 30.20 in 10.0 mi Calm Calm - N/A   Clear
3:35 AM 52.9 °F 51.3 °F 94% 30.20 in 5.0 mi Calm Calm - N/A   Clear
3:55 AM 53.1 °F 51.6 °F 95% 30.21 in 10.0 mi Calm Calm - N/A   Clear
4:15 AM 53.2 °F 51.4 °F 94% 30.21 in 10.0 mi Calm Calm - N/A   Clear
4:35 AM 52.7 °F 51.1 °F 94% 30.21 in 5.0 mi Calm Calm - N/A   Clear
4:55 AM 51.6 °F 49.6 °F 93% 30.22 in 2.5 mi Calm Calm - N/A   Clear
5:15 AM 51.1 °F 49.8 °F 95% 30.23 in 3.0 mi Calm Calm - N/A   Clear
5:35 AM 50.2 °F 48.7 °F 95% 30.24 in 7.0 mi Calm Calm - N/A   Clear
5:55 AM 50.7 °F 49.1 °F 94% 30.24 in 10.0 mi Calm Calm - N/A   Clear
6:15 AM 50.9 °F 49.5 °F 95% 30.25 in 5.0 mi Calm Calm - N/A   Clear
6:35 AM 50.0 °F 48.4 °F 94% 30.26 in 5.0 mi Calm Calm - N/A   Clear
6:55 AM 52.9 °F 48.2 °F 84% 30.27 in 10.0 mi NE 3.5 mph - N/A   Clear
7:15 AM 55.4 °F 48.4 °F 77% 30.27 in 10.0 mi NE 5.8 mph - N/A   Clear
7:35 AM 57.2 °F 49.5 °F 75% 30.28 in 10.0 mi NE 4.6 mph - N/A   Clear
7:55 AM 59.9 °F 47.7 °F 64% 30.29 in 10.0 mi ENE 5.8 mph - N/A   Clear
8:15 AM 62.4 °F 45.7 °F 54% 30.29 in 10.0 mi ENE 8.1 mph - N/A   Clear
8:35 AM 64.2 °F 44.8 °F 49% 30.31 in 10.0 mi East 9.2 mph - N/A   Clear
8:55 AM 65.8 °F 43.7 °F 45% 30.32 in 10.0 mi East 10.4 mph - N/A   Clear
9:15 AM 66.9 °F 43.9 °F 43% 30.32 in 10.0 mi East 10.4 mph - N/A   Clear
9:35 AM 68.9 °F 43.7 °F 40% 30.33 in 10.0 mi East 8.1 mph - N/A   Clear
9:55 AM 70.5 °F 44.1 °F 39% 30.34 in 10.0 mi East 6.9 mph - N/A   Clear
10:15 AM 72.1 °F 43.3 °F 35% 30.35 in 10.0 mi ESE 8.1 mph - N/A   Clear
10:35 AM 72.5 °F 41.9 °F 33% 30.35 in 10.0 mi ESE 5.8 mph - N/A   Clear
10:55 AM 73.6 °F 41.7 °F 32% 30.34 in 10.0 mi ESE 4.6 mph - N/A   Clear
11:15 AM 74.1 °F 41.9 °F 31% 30.33 in 10.0 mi Calm Calm - N/A   Clear
11:35 AM 75.4 °F 39.0 °F 27% 30.33 in 10.0 mi ESE 6.9 mph - N/A   Clear
11:55 AM 75.7 °F 39.4 °F 27% 30.32 in 10.0 mi ENE 4.6 mph - N/A   Clear
12:15 PM 77.4 °F 41.2 °F 27% 30.32 in 10.0 mi East 5.8 mph - N/A   Clear
12:35 PM 77.7 °F 41.0 °F 27% 30.31 in 10.0 mi SSE 4.6 mph - N/A   Clear
12:55 PM 78.6 °F 41.0 °F 26% 30.31 in 10.0 mi SE 4.6 mph - N/A   Clear
1:15 PM 79.3 °F 40.8 °F 25% 30.30 in 10.0 mi Calm Calm - N/A   Clear
1:35 PM 79.9 °F 40.6 °F 25% 30.29 in 10.0 mi Calm Calm - N/A   Clear
1:55 PM 82.0 °F 42.1 °F 24% 30.28 in 10.0 mi SSE 4.6 mph - N/A   Clear
2:15 PM 81.3 °F 41.7 °F 25% 30.27 in 10.0 mi SSW 4.6 mph - N/A   Clear
2:35 PM 82.8 °F 42.8 °F 24% 30.27 in 10.0 mi North 3.5 mph - N/A   Clear
2:55 PM 82.2 °F 43.0 °F 25% 30.26 in 10.0 mi Calm Calm - N/A   Clear
3:15 PM 82.6 °F 41.7 °F 24% 30.25 in 10.0 mi NNE 4.6 mph - N/A   Clear
3:35 PM 82.4 °F 39.7 °F 22% 30.24 in 10.0 mi Calm Calm - N/A   Clear
3:55 PM 83.3 °F 41.7 °F 23% 30.23 in 10.0 mi Calm Calm - N/A   Clear
4:15 PM 82.8 °F 40.8 °F 23% 30.23 in 10.0 mi Calm Calm - N/A   Clear
4:35 PM 82.8 °F 42.3 °F 24% 30.22 in 10.0 mi WSW 3.5 mph - N/A   Clear
4:55 PM 82.6 °F 41.0 °F 23% 30.22 in 10.0 mi Calm Calm - N/A   Clear
5:15 PM 82.6 °F 41.7 °F 24% 30.22 in 10.0 mi Calm Calm - N/A   Clear
5:35 PM 82.6 °F 43.2 °F 25% 30.22 in 10.0 mi Calm Calm - N/A   Clear
5:55 PM 82.0 °F 43.9 °F 26% 30.22 in 10.0 mi North 3.5 mph - N/A   Clear
6:15 PM 81.5 °F 44.8 °F 27% 30.22 in 10.0 mi Calm Calm - N/A   Clear
6:35 PM 80.1 °F 46.8 °F 31% 30.22 in 10.0 mi NNE 5.8 mph - N/A   Clear
6:55 PM 78.4 °F 48.9 °F 35% 30.22 in 10.0 mi NNE 4.6 mph - N/A   Clear
7:15 PM 78.3 °F 49.8 °F 37% 30.22 in 10.0 mi Calm Calm - N/A   Clear
7:35 PM 77.5 °F 51.1 °F 40% 30.23 in 10.0 mi Calm Calm - N/A   Clear
7:55 PM 75.6 °F 54.9 °F 48% 30.23 in 10.0 mi Calm Calm - N/A   Clear
8:15 PM 72.3 °F 57.2 °F 59% 30.23 in 10.0 mi Calm Calm - N/A   Clear
8:35 PM 70.9 °F 55.6 °F 58% 30.22 in 10.0 mi Calm Calm - N/A   Clear
8:55 PM 66.4 °F 58.1 °F 75% 30.23 in 10.0 mi Calm Calm - N/A   Clear
9:15 PM 66.6 °F 60.4 °F 81% 30.23 in 10.0 mi Calm Calm - N/A   Clear
9:35 PM 64.4 °F 59.5 °F 84% 30.23 in 10.0 mi Calm Calm - N/A   Clear
9:55 PM 63.7 °F 59.2 °F 85% 30.23 in 10.0 mi Calm Calm - N/A   Clear
10:15 PM 61.9 °F 58.5 °F 89% 30.24 in 10.0 mi Calm Calm - N/A   Clear
10:35 PM 61.0 °F 59.0 °F 93% 30.24 in 10.0 mi Calm Calm - N/A   Clear
10:55 PM 60.4 °F 58.3 °F 93% 30.24 in 10.0 mi Calm Calm - N/A   Clear
11:15 PM 59.4 °F 57.0 °F 92% 30.24 in 10.0 mi Calm Calm - N/A   Clear
11:35 PM 58.1 °F 56.1 °F 93% 30.24 in 5.0 mi Calm Calm - N/A   Clear
11:55 PM 58.8 °F 57.0 °F 94% 30.23 in 5.0 mi Calm Calm - N/A   Clear